Year,Month,Day,Hour,Minute,Value (Times are PST for temperature in C)
2019,02,05,00,00,-1.40
2019,02,05,00,01,-1.40
2019,02,05,00,02,-1.40
2019,02,05,00,03,-1.40
2019,02,05,00,04,-1.40
2019,02,05,00,05,-1.40
2019,02,05,00,06,-1.40
2019,02,05,00,07,-1.30
2019,02,05,00,08,-1.30
2019,02,05,00,09,-1.30
2019,02,05,00,10,-1.30
2019,02,05,00,11,-1.30
2019,02,05,00,12,-1.30
2019,02,05,00,13,-1.30
2019,02,05,00,14,-1.30
2019,02,05,00,15,-1.30
2019,02,05,00,16,-1.30
2019,02,05,00,17,-1.30
2019,02,05,00,18,-1.40
2019,02,05,00,19,-1.40
2019,02,05,00,20,-1.40
2019,02,05,00,21,-1.40
2019,02,05,00,22,-1.40
2019,02,05,00,23,-1.40
2019,02,05,00,24,-1.40
2019,02,05,00,25,-1.40
2019,02,05,00,26,-1.50
2019,02,05,00,27,-1.50
2019,02,05,00,28,-1.50
2019,02,05,00,29,-1.60
2019,02,05,00,30,-1.60
2019,02,05,00,32,-1.60
2019,02,05,00,33,-1.60
2019,02,05,00,34,-1.60
2019,02,05,00,35,-1.60
2019,02,05,00,36,-1.60
2019,02,05,00,37,-1.60
2019,02,05,00,38,-1.60
2019,02,05,00,39,-1.60
2019,02,05,00,40,-1.60
2019,02,05,00,41,-1.60
2019,02,05,00,42,-1.60
2019,02,05,00,43,-1.60
2019,02,05,00,44,-1.60
2019,02,05,00,45,-1.60
2019,02,05,00,46,-1.70
2019,02,05,00,47,-1.70
2019,02,05,00,48,-1.70
2019,02,05,00,49,-1.80
2019,02,05,00,50,-1.80
2019,02,05,00,51,-1.80
2019,02,05,00,52,-1.80
2019,02,05,00,53,-1.80
2019,02,05,00,54,-1.80
2019,02,05,00,55,-1.80
2019,02,05,00,56,-1.90
2019,02,05,00,57,-1.90
2019,02,05,00,58,-1.90
2019,02,05,00,59,-2.00
2019,02,05,01,00,-2.00
2019,02,05,01,01,-2.00
2019,02,05,01,02,-2.00
2019,02,05,01,03,-2.00
2019,02,05,01,04,-2.10
2019,02,05,01,05,-2.10
2019,02,05,01,06,-2.10
2019,02,05,01,07,-2.00
2019,02,05,01,08,-2.00
2019,02,05,01,09,-2.00
2019,02,05,01,10,-2.00
2019,02,05,01,11,-2.00
2019,02,05,01,12,-2.10
2019,02,05,01,13,-2.10
2019,02,05,01,14,-2.10
2019,02,05,01,15,-2.10
2019,02,05,01,16,-2.10
2019,02,05,01,17,-2.20
2019,02,05,01,18,-2.20
2019,02,05,01,19,-2.20
2019,02,05,01,20,-2.30
2019,02,05,01,21,-2.30
2019,02,05,01,22,-2.30
2019,02,05,01,23,-2.30
2019,02,05,01,24,-2.30
2019,02,05,01,25,-2.30
2019,02,05,01,26,-2.30
2019,02,05,01,27,-2.30
2019,02,05,01,28,-2.30
2019,02,05,01,29,-2.30
2019,02,05,01,30,-2.30
2019,02,05,01,31,-2.30
2019,02,05,01,32,-2.30
2019,02,05,01,33,-2.40
2019,02,05,01,34,-2.40
2019,02,05,01,35,-2.40
2019,02,05,01,36,-2.40
2019,02,05,01,37,-2.50
2019,02,05,01,38,-2.50
2019,02,05,01,39,-2.50
2019,02,05,01,40,-2.50
2019,02,05,01,41,-2.50
2019,02,05,01,42,-2.50
2019,02,05,01,43,-2.40
2019,02,05,01,44,-2.40
2019,02,05,01,45,-2.40
2019,02,05,01,46,-2.40
2019,02,05,01,47,-2.40
2019,02,05,01,48,-2.40
2019,02,05,01,49,-2.40
2019,02,05,01,50,-2.40
2019,02,05,01,51,-2.40
2019,02,05,01,52,-2.40
2019,02,05,01,53,-2.40
2019,02,05,01,54,-2.40
2019,02,05,01,55,-2.40
2019,02,05,01,56,-2.40
2019,02,05,01,57,-2.30
2019,02,05,01,58,-2.30
2019,02,05,01,59,-2.30
2019,02,05,02,00,-2.30
2019,02,05,02,01,-2.30
2019,02,05,02,02,-2.30
2019,02,05,02,04,-2.30
2019,02,05,02,06,-2.20
2019,02,05,02,07,-2.20
2019,02,05,02,08,-2.20
2019,02,05,02,09,-2.20
2019,02,05,02,11,-2.20
2019,02,05,02,12,-2.20
2019,02,05,02,13,-2.20
2019,02,05,02,14,-2.20
2019,02,05,02,16,-2.20
2019,02,05,02,17,-2.20
2019,02,05,02,18,-2.20
2019,02,05,02,19,-2.20
2019,02,05,02,21,-2.30
2019,02,05,02,22,-2.20
2019,02,05,02,23,-2.20
2019,02,05,02,24,-2.20
2019,02,05,02,26,-2.20
2019,02,05,02,27,-2.10
2019,02,05,02,28,-2.10
2019,02,05,02,29,-2.10
2019,02,05,02,31,-2.10
2019,02,05,02,32,-2.10
2019,02,05,02,33,-2.10
2019,02,05,02,34,-2.10
2019,02,05,02,36,-2.10
2019,02,05,02,37,-2.10
2019,02,05,02,38,-2.10
2019,02,05,02,39,-2.10
2019,02,05,02,41,-2.10
2019,02,05,02,42,-2.10
2019,02,05,02,43,-2.10
2019,02,05,02,44,-2.10
2019,02,05,02,46,-2.10
2019,02,05,02,47,-2.10
2019,02,05,02,48,-2.10
2019,02,05,02,49,-2.10
2019,02,05,02,51,-2.20
2019,02,05,02,52,-2.20
2019,02,05,02,53,-2.20
2019,02,05,02,54,-2.20
2019,02,05,02,56,-2.30
2019,02,05,02,57,-2.30
2019,02,05,02,58,-2.30
2019,02,05,02,59,-2.30
2019,02,05,03,01,-2.30
2019,02,05,03,02,-2.30
2019,02,05,03,03,-2.30
2019,02,05,03,04,-2.30
2019,02,05,03,06,-2.30
2019,02,05,03,07,-2.30
2019,02,05,03,08,-2.40
2019,02,05,03,09,-2.40
2019,02,05,03,11,-2.40
2019,02,05,03,12,-2.40
2019,02,05,03,13,-2.50
2019,02,05,03,14,-2.50
2019,02,05,03,16,-2.50
2019,02,05,03,17,-2.50
2019,02,05,03,18,-2.50
2019,02,05,03,19,-2.50
2019,02,05,03,21,-2.50
2019,02,05,03,22,-2.50
2019,02,05,03,23,-2.40
2019,02,05,03,24,-2.40
2019,02,05,03,26,-2.40
2019,02,05,03,27,-2.40
2019,02,05,03,28,-2.40
2019,02,05,03,29,-2.40
2019,02,05,03,30,-2.40
2019,02,05,03,31,-2.40
2019,02,05,03,32,-2.40
2019,02,05,03,33,-2.40
2019,02,05,03,34,-2.40
2019,02,05,03,35,-2.40
2019,02,05,03,36,-2.40
2019,02,05,03,37,-2.40
2019,02,05,03,38,-2.40
2019,02,05,03,39,-2.40
2019,02,05,03,40,-2.40
2019,02,05,03,41,-2.50
2019,02,05,03,42,-2.50
2019,02,05,03,43,-2.60
2019,02,05,03,44,-2.60
2019,02,05,03,45,-2.60
2019,02,05,03,46,-2.70
2019,02,05,03,47,-2.70
2019,02,05,03,48,-2.80
2019,02,05,03,49,-2.80
2019,02,05,03,50,-2.80
2019,02,05,03,51,-2.80
2019,02,05,03,52,-2.80
2019,02,05,03,53,-2.80
2019,02,05,03,54,-2.80
2019,02,05,03,55,-2.80
2019,02,05,03,56,-2.80
2019,02,05,03,57,-2.80
2019,02,05,03,58,-2.80
2019,02,05,03,59,-2.80
2019,02,05,04,00,-2.80
2019,02,05,04,01,-2.80
2019,02,05,04,02,-2.80
2019,02,05,04,03,-2.70
2019,02,05,04,04,-2.60
2019,02,05,04,05,-2.50
2019,02,05,04,06,-2.40
2019,02,05,04,07,-2.40
2019,02,05,04,08,-2.30
2019,02,05,04,09,-2.30
2019,02,05,04,10,-2.30
2019,02,05,04,11,-2.20
2019,02,05,04,12,-2.20
2019,02,05,04,13,-2.20
2019,02,05,04,14,-2.10
2019,02,05,04,15,-2.10
2019,02,05,04,16,-2.10
2019,02,05,04,17,-2.10
2019,02,05,04,18,-2.00
2019,02,05,04,19,-2.00
2019,02,05,04,20,-2.00
2019,02,05,04,21,-2.00
2019,02,05,04,22,-2.00
2019,02,05,04,23,-2.00
2019,02,05,04,24,-1.90
2019,02,05,04,25,-1.90
2019,02,05,04,26,-1.90
2019,02,05,04,27,-1.90
2019,02,05,04,28,-1.90
2019,02,05,04,29,-1.90
2019,02,05,04,30,-1.80
2019,02,05,04,31,-1.80
2019,02,05,04,32,-1.80
2019,02,05,04,33,-1.80
2019,02,05,04,34,-1.80
2019,02,05,04,35,-1.80
2019,02,05,04,36,-1.80
2019,02,05,04,37,-1.70
2019,02,05,04,38,-1.70
2019,02,05,04,39,-1.70
2019,02,05,04,40,-1.70
2019,02,05,04,41,-1.70
2019,02,05,04,42,-1.70
2019,02,05,04,43,-1.70
2019,02,05,04,44,-1.70
2019,02,05,04,45,-1.80
2019,02,05,04,46,-1.80
2019,02,05,04,47,-1.80
2019,02,05,04,48,-1.80
2019,02,05,04,49,-1.80
2019,02,05,04,50,-1.80
2019,02,05,04,51,-1.70
2019,02,05,04,52,-1.70
2019,02,05,04,53,-1.70
2019,02,05,04,54,-1.70
2019,02,05,04,55,-1.70
2019,02,05,04,56,-1.70
2019,02,05,04,57,-1.70
2019,02,05,04,58,-1.70
2019,02,05,04,59,-1.70
2019,02,05,05,00,-1.70
2019,02,05,05,01,-1.70
2019,02,05,05,02,-1.70
2019,02,05,05,03,-1.70
2019,02,05,05,04,-1.70
2019,02,05,05,05,-1.70
2019,02,05,05,06,-1.70
2019,02,05,05,07,-1.70
2019,02,05,05,08,-1.70
2019,02,05,05,09,-1.70
2019,02,05,05,10,-1.70
2019,02,05,05,11,-1.70
2019,02,05,05,12,-1.70
2019,02,05,05,13,-1.70
2019,02,05,05,14,-1.70
2019,02,05,05,15,-1.70
2019,02,05,05,16,-1.70
2019,02,05,05,17,-1.70
2019,02,05,05,18,-1.70
2019,02,05,05,19,-1.70
2019,02,05,05,20,-1.70
2019,02,05,05,21,-1.70
2019,02,05,05,22,-1.70
2019,02,05,05,23,-1.70
2019,02,05,05,24,-1.70
2019,02,05,05,25,-1.70
2019,02,05,05,26,-1.60
2019,02,05,05,27,-1.70
2019,02,05,05,28,-1.60
2019,02,05,05,29,-1.60
2019,02,05,05,30,-1.60
2019,02,05,05,31,-1.60
2019,02,05,05,32,-1.60
2019,02,05,05,33,-1.60
2019,02,05,05,34,-1.60
2019,02,05,05,35,-1.70
2019,02,05,05,36,-1.70
2019,02,05,05,37,-1.70
2019,02,05,05,38,-1.70
2019,02,05,05,39,-1.70
2019,02,05,05,40,-1.70
2019,02,05,05,41,-1.70
2019,02,05,05,42,-1.70
2019,02,05,05,43,-1.70
2019,02,05,05,44,-1.70
2019,02,05,05,45,-1.70
2019,02,05,05,46,-1.70
2019,02,05,05,47,-1.70
2019,02,05,05,48,-1.70
2019,02,05,05,49,-1.70
2019,02,05,05,50,-1.70
2019,02,05,05,51,-1.70
2019,02,05,05,52,-1.70
2019,02,05,05,53,-1.70
2019,02,05,05,54,-1.70
2019,02,05,05,55,-1.70
2019,02,05,05,56,-1.70
2019,02,05,05,57,-1.70
2019,02,05,05,58,-1.70
2019,02,05,05,59,-1.70
2019,02,05,06,00,-1.70
2019,02,05,06,01,-1.70
2019,02,05,06,02,-1.70
2019,02,05,06,03,-1.70
2019,02,05,06,04,-1.70
2019,02,05,06,05,-1.70
2019,02,05,06,06,-1.70
2019,02,05,06,07,-1.70
2019,02,05,06,08,-1.70
2019,02,05,06,09,-1.70
2019,02,05,06,10,-1.70
2019,02,05,06,11,-1.70
2019,02,05,06,12,-1.70
2019,02,05,06,13,-1.70
2019,02,05,06,14,-1.70
2019,02,05,06,15,-1.70
2019,02,05,06,16,-1.70
2019,02,05,06,17,-1.70
2019,02,05,06,18,-1.80
2019,02,05,06,19,-1.80
2019,02,05,06,20,-1.80
2019,02,05,06,21,-1.70
2019,02,05,06,22,-1.70
2019,02,05,06,23,-1.70
2019,02,05,06,24,-1.70
2019,02,05,06,25,-1.70
2019,02,05,06,26,-1.70
2019,02,05,06,27,-1.70
2019,02,05,06,28,-1.70
2019,02,05,06,29,-1.70
2019,02,05,06,30,-1.70
2019,02,05,06,32,-1.70
2019,02,05,06,33,-1.70
2019,02,05,06,34,-1.70
2019,02,05,06,35,-1.70
2019,02,05,06,36,-1.70
2019,02,05,06,37,-1.70
2019,02,05,06,38,-1.70
2019,02,05,06,39,-1.70
2019,02,05,06,40,-1.70
2019,02,05,06,41,-1.70
2019,02,05,06,42,-1.70
2019,02,05,06,43,-1.70
2019,02,05,06,44,-1.70
2019,02,05,06,45,-1.70
2019,02,05,06,47,-1.70
2019,02,05,06,49,-1.70
2019,02,05,06,50,-1.70
2019,02,05,06,52,-1.70
2019,02,05,06,54,-1.70
2019,02,05,06,56,-1.70
2019,02,05,06,57,-1.70
2019,02,05,06,58,-1.70
2019,02,05,06,59,-1.70
2019,02,05,07,01,-1.60
2019,02,05,07,02,-1.60
2019,02,05,07,03,-1.60
2019,02,05,07,04,-1.60
2019,02,05,07,06,-1.60
2019,02,05,07,07,-1.60
2019,02,05,07,08,-1.60
2019,02,05,07,09,-1.60
2019,02,05,07,11,-1.60
2019,02,05,07,12,-1.60
2019,02,05,07,13,-1.60
2019,02,05,07,14,-1.60
2019,02,05,07,16,-1.60
2019,02,05,07,17,-1.60
2019,02,05,07,18,-1.60
2019,02,05,07,19,-1.60
2019,02,05,07,21,-1.60
2019,02,05,07,22,-1.60
2019,02,05,07,23,-1.60
2019,02,05,07,24,-1.60
2019,02,05,07,26,-1.60
2019,02,05,07,27,-1.70
2019,02,05,07,28,-1.70
2019,02,05,07,29,-1.70
2019,02,05,07,31,-1.70
2019,02,05,07,32,-1.70
2019,02,05,07,33,-1.70
2019,02,05,07,34,-1.70
2019,02,05,07,36,-1.70
2019,02,05,07,37,-1.70
2019,02,05,07,38,-1.70
2019,02,05,07,39,-1.80
2019,02,05,07,41,-1.80
2019,02,05,07,42,-1.80
2019,02,05,07,43,-1.80
2019,02,05,07,44,-1.80
2019,02,05,07,46,-1.80
2019,02,05,07,47,-1.80
2019,02,05,07,48,-1.80
2019,02,05,07,49,-1.70
2019,02,05,07,51,-1.70
2019,02,05,07,52,-1.70
2019,02,05,07,53,-1.70
2019,02,05,07,54,-1.70
2019,02,05,07,56,-1.70
2019,02,05,07,57,-1.70
2019,02,05,07,58,-1.60
2019,02,05,07,59,-1.60
2019,02,05,08,01,-1.70
2019,02,05,08,02,-1.70
2019,02,05,08,03,-1.70
2019,02,05,08,04,-1.70
2019,02,05,08,06,-1.70
2019,02,05,08,07,-1.70
2019,02,05,08,08,-1.70
2019,02,05,08,09,-1.70
2019,02,05,08,11,-1.70
2019,02,05,08,12,-1.70
2019,02,05,08,13,-1.70
2019,02,05,08,14,-1.70
2019,02,05,08,16,-1.70
2019,02,05,08,17,-1.70
2019,02,05,08,18,-1.70
2019,02,05,08,19,-1.70
2019,02,05,08,21,-1.60
2019,02,05,08,22,-1.60
2019,02,05,08,23,-1.60
2019,02,05,08,24,-1.60
2019,02,05,08,26,-1.60
2019,02,05,08,27,-1.60
2019,02,05,08,28,-1.60
2019,02,05,08,29,-1.60
2019,02,05,08,30,-1.50
2019,02,05,08,31,-1.50
2019,02,05,08,32,-1.50
2019,02,05,08,33,-1.50
2019,02,05,08,34,-1.50
2019,02,05,08,35,-1.50
2019,02,05,08,36,-1.50
2019,02,05,08,37,-1.50
2019,02,05,08,38,-1.50
2019,02,05,08,39,-1.50
2019,02,05,08,40,-1.50
2019,02,05,08,41,-1.50
2019,02,05,08,42,-1.50
2019,02,05,08,43,-1.50
2019,02,05,08,44,-1.40
2019,02,05,08,45,-1.40
2019,02,05,08,46,-1.40
2019,02,05,08,47,-1.40
2019,02,05,08,48,-1.40
2019,02,05,08,49,-1.40
2019,02,05,08,50,-1.40
2019,02,05,08,51,-1.40
2019,02,05,08,52,-1.40
2019,02,05,08,53,-1.40
2019,02,05,08,54,-1.40
2019,02,05,08,55,-1.40
2019,02,05,08,56,-1.40
2019,02,05,08,57,-1.40
2019,02,05,08,58,-1.40
2019,02,05,08,59,-1.40
2019,02,05,09,00,-1.40
2019,02,05,09,01,-1.40
2019,02,05,09,02,-1.40
2019,02,05,09,03,-1.40
2019,02,05,09,04,-1.40
2019,02,05,09,05,-1.40
2019,02,05,09,06,-1.40
2019,02,05,09,07,-1.40
2019,02,05,09,08,-1.40
2019,02,05,09,09,-1.40
2019,02,05,09,10,-1.40
2019,02,05,09,11,-1.40
2019,02,05,09,12,-1.40
2019,02,05,09,13,-1.40
2019,02,05,09,14,-1.40
2019,02,05,09,15,-1.30
2019,02,05,09,16,-1.30
2019,02,05,09,17,-1.30
2019,02,05,09,18,-1.30
2019,02,05,09,19,-1.30
2019,02,05,09,20,-1.20
2019,02,05,09,21,-1.20
2019,02,05,09,22,-1.20
2019,02,05,09,23,-1.20
2019,02,05,09,24,-1.20
2019,02,05,09,25,-1.20
2019,02,05,09,26,-1.20
2019,02,05,09,27,-1.20
2019,02,05,09,28,-1.20
2019,02,05,09,29,-1.20
2019,02,05,09,30,-1.20
2019,02,05,09,31,-1.20
2019,02,05,09,32,-1.20
2019,02,05,09,33,-1.20
2019,02,05,09,34,-1.20
2019,02,05,09,35,-1.20
2019,02,05,09,36,-1.20
2019,02,05,09,37,-1.20
2019,02,05,09,38,-1.20
2019,02,05,09,39,-1.20
2019,02,05,09,40,-1.20
2019,02,05,09,41,-1.20
2019,02,05,09,42,-1.20
2019,02,05,09,43,-1.10
2019,02,05,09,44,-1.10
2019,02,05,09,45,-1.10
2019,02,05,09,46,-1.10
2019,02,05,09,47,-1.10
2019,02,05,09,48,-1.10
2019,02,05,09,49,-1.10
2019,02,05,09,50,-1.10
2019,02,05,09,51,-1.10
2019,02,05,09,52,-1.10
2019,02,05,09,53,-0.90
2019,02,05,09,54,-0.90
2019,02,05,09,55,-0.90
2019,02,05,09,56,-0.90
2019,02,05,09,57,-0.90
2019,02,05,09,58,-0.90
2019,02,05,09,59,-0.80
2019,02,05,10,00,-0.80
2019,02,05,10,01,-0.80
2019,02,05,10,02,-0.80
2019,02,05,10,03,-0.80
2019,02,05,10,04,-0.80
2019,02,05,10,05,-0.80
2019,02,05,10,06,-0.80
2019,02,05,10,07,-0.70
2019,02,05,10,08,-0.70
2019,02,05,10,09,-0.70
2019,02,05,10,10,-0.60
2019,02,05,10,11,-0.60
2019,02,05,10,12,-0.60
2019,02,05,10,13,-0.60
2019,02,05,10,14,-0.60
2019,02,05,10,15,-0.60
2019,02,05,10,16,-0.60
2019,02,05,10,17,-0.60
2019,02,05,10,18,-0.60
2019,02,05,10,19,-0.60
2019,02,05,10,20,-0.40
2019,02,05,10,21,-0.40
2019,02,05,10,22,-0.40
2019,02,05,10,23,-0.40
2019,02,05,10,24,-0.40
2019,02,05,10,25,-0.40
2019,02,05,10,26,-0.40
2019,02,05,10,27,-0.40
2019,02,05,10,28,-0.40
2019,02,05,10,29,-0.40
2019,02,05,10,30,-0.40
2019,02,05,10,31,-0.40
2019,02,05,10,32,-0.30
2019,02,05,10,33,-0.30
2019,02,05,10,34,-0.30
2019,02,05,10,35,-0.30
2019,02,05,10,36,-0.30
2019,02,05,10,37,-0.20
2019,02,05,10,38,-0.20
2019,02,05,10,39,-0.20
2019,02,05,10,40,-0.20
2019,02,05,10,41,-0.20
2019,02,05,10,42,-0.20
2019,02,05,10,43,-0.20
2019,02,05,10,44,-0.10
2019,02,05,10,45,-0.10
2019,02,05,10,46,-0.10
2019,02,05,10,47,-0.10
2019,02,05,10,48,-0.10
2019,02,05,10,49,-0.10
2019,02,05,10,50,-0.10
2019,02,05,10,51,-0.10
2019,02,05,10,52,-0.10
2019,02,05,10,53,-0.10
2019,02,05,10,54,0.10
2019,02,05,10,55,0.10
2019,02,05,10,56,0.10
2019,02,05,10,57,0.10
2019,02,05,10,58,0.10
2019,02,05,10,59,0.10
2019,02,05,11,00,0.10
2019,02,05,11,01,0.10
2019,02,05,11,02,0.20
2019,02,05,11,03,0.20
2019,02,05,11,04,0.20
2019,02,05,11,05,0.20
2019,02,05,11,06,0.20
2019,02,05,11,07,0.30
2019,02,05,11,08,0.30
2019,02,05,11,09,0.40
2019,02,05,11,10,0.40
2019,02,05,11,11,0.40
2019,02,05,11,12,0.40
2019,02,05,11,13,0.40
2019,02,05,11,14,0.40
2019,02,05,11,15,0.50
2019,02,05,11,16,0.50
2019,02,05,11,17,0.50
2019,02,05,11,18,0.50
2019,02,05,11,19,0.60
2019,02,05,11,20,0.60
2019,02,05,11,21,0.60
2019,02,05,11,22,0.70
2019,02,05,11,23,0.70
2019,02,05,11,24,0.80
2019,02,05,11,25,0.80
2019,02,05,11,26,0.80
2019,02,05,11,27,0.80
2019,02,05,11,28,0.80
2019,02,05,11,29,0.80
2019,02,05,11,30,0.80
2019,02,05,11,31,0.80
2019,02,05,11,32,0.80
2019,02,05,11,33,0.80
2019,02,05,11,34,0.80
2019,02,05,11,35,0.80
2019,02,05,11,36,0.80
2019,02,05,11,37,0.80
2019,02,05,11,38,0.80
2019,02,05,11,39,0.80
2019,02,05,11,40,0.80
2019,02,05,11,41,0.80
2019,02,05,11,42,0.80
2019,02,05,11,43,0.80
2019,02,05,11,44,0.80
2019,02,05,11,45,0.80
2019,02,05,11,46,0.80
2019,02,05,11,47,0.90
2019,02,05,11,48,0.90
2019,02,05,11,49,0.90
2019,02,05,11,50,0.90
2019,02,05,11,51,0.90
2019,02,05,11,52,0.90
2019,02,05,11,53,0.90
2019,02,05,11,54,0.90
2019,02,05,11,55,0.90
2019,02,05,11,56,0.90
2019,02,05,11,57,0.90
2019,02,05,11,58,0.90
2019,02,05,11,59,0.90
2019,02,05,12,00,1.00
2019,02,05,12,01,0.90
2019,02,05,12,02,0.90
2019,02,05,12,03,1.00
2019,02,05,12,04,1.00
2019,02,05,12,05,1.00
2019,02,05,12,06,1.00
2019,02,05,12,07,1.00
2019,02,05,12,09,1.00
2019,02,05,12,11,1.00
2019,02,05,12,12,1.00
2019,02,05,12,13,1.00
2019,02,05,12,14,1.10
2019,02,05,12,16,1.00
2019,02,05,12,17,1.00
2019,02,05,12,18,1.00
2019,02,05,12,19,1.00
2019,02,05,12,21,0.90
2019,02,05,12,22,0.90
2019,02,05,12,23,0.90
2019,02,05,12,24,0.90
2019,02,05,12,26,0.90
2019,02,05,12,27,0.90
2019,02,05,12,28,1.00
2019,02,05,12,29,1.00
2019,02,05,12,30,1.00
2019,02,05,12,32,1.00
2019,02,05,12,33,0.90
2019,02,05,12,34,0.90
2019,02,05,12,36,1.00
2019,02,05,12,37,1.00
2019,02,05,12,38,1.00
2019,02,05,12,39,1.00
2019,02,05,12,41,1.00
2019,02,05,12,42,1.10
2019,02,05,12,43,1.10
2019,02,05,12,44,1.10
2019,02,05,12,46,1.20
2019,02,05,12,47,1.20
2019,02,05,12,48,1.20
2019,02,05,12,49,1.20
2019,02,05,12,51,1.20
2019,02,05,12,52,1.20
2019,02,05,12,53,1.20
2019,02,05,12,54,1.20
2019,02,05,12,56,1.20
2019,02,05,12,57,1.20
2019,02,05,12,58,1.20
2019,02,05,12,59,1.20
2019,02,05,13,01,1.10
2019,02,05,13,02,1.10
2019,02,05,13,03,1.00
2019,02,05,13,04,1.00
2019,02,05,13,06,1.00
2019,02,05,13,07,1.00
2019,02,05,13,08,1.00
2019,02,05,13,09,1.00
2019,02,05,13,11,1.00
2019,02,05,13,12,1.00
2019,02,05,13,13,1.00
2019,02,05,13,14,1.00
2019,02,05,13,16,1.00
2019,02,05,13,17,1.00
2019,02,05,13,18,1.00
2019,02,05,13,19,1.00
2019,02,05,13,21,1.00
2019,02,05,13,22,1.00
2019,02,05,13,23,1.00
2019,02,05,13,24,1.00
2019,02,05,13,26,1.10
2019,02,05,13,27,1.10
2019,02,05,13,28,1.10
2019,02,05,13,29,1.10
2019,02,05,13,30,1.10
2019,02,05,13,31,1.10
2019,02,05,13,32,1.10
2019,02,05,13,33,1.10
2019,02,05,13,34,1.10
2019,02,05,13,35,1.20
2019,02,05,13,36,1.20
2019,02,05,13,37,1.20
2019,02,05,13,38,1.20
2019,02,05,13,39,1.20
2019,02,05,13,40,1.20
2019,02,05,13,41,1.20
2019,02,05,13,42,1.20
2019,02,05,13,43,1.20
2019,02,05,13,44,1.30
2019,02,05,13,45,1.30
2019,02,05,13,46,1.30
2019,02,05,13,47,1.30
2019,02,05,13,48,1.30
2019,02,05,13,49,1.30
2019,02,05,13,50,1.30
2019,02,05,13,51,1.30
2019,02,05,13,52,1.30
2019,02,05,13,53,1.30
2019,02,05,13,54,1.30
2019,02,05,13,55,1.30
2019,02,05,13,56,1.30
2019,02,05,13,57,1.30
2019,02,05,13,58,1.30
2019,02,05,13,59,1.30
2019,02,05,14,00,1.30
2019,02,05,14,01,1.30
2019,02,05,14,02,1.30
2019,02,05,14,03,1.30
2019,02,05,14,04,1.30
2019,02,05,14,05,1.30
2019,02,05,14,06,1.30
2019,02,05,14,07,1.30
2019,02,05,14,08,1.30
2019,02,05,14,09,1.30
2019,02,05,14,10,1.40
2019,02,05,14,11,1.30
2019,02,05,14,12,1.30
2019,02,05,14,13,1.30
2019,02,05,14,14,1.30
2019,02,05,14,15,1.30
2019,02,05,14,16,1.30
2019,02,05,14,17,1.30
2019,02,05,14,18,1.30
2019,02,05,14,19,1.30
2019,02,05,14,20,1.30
2019,02,05,14,21,1.30
2019,02,05,14,22,1.30
2019,02,05,14,23,1.30
2019,02,05,14,24,1.30
2019,02,05,14,25,1.30
2019,02,05,14,26,1.30
2019,02,05,14,27,1.30
2019,02,05,14,28,1.30
2019,02,05,14,29,1.30
2019,02,05,14,30,1.30
2019,02,05,14,31,1.30
2019,02,05,14,32,1.30
2019,02,05,14,33,1.30
2019,02,05,14,34,1.30
2019,02,05,14,35,1.30
2019,02,05,14,36,1.30
2019,02,05,14,37,1.30
2019,02,05,14,38,1.30
2019,02,05,14,39,1.30
2019,02,05,14,40,1.30
2019,02,05,14,41,1.30
2019,02,05,14,42,1.30
2019,02,05,14,43,1.30
2019,02,05,14,44,1.30
2019,02,05,14,45,1.30
2019,02,05,14,46,1.40
2019,02,05,14,47,1.40
2019,02,05,14,48,1.40
2019,02,05,14,49,1.50
2019,02,05,14,50,1.50
2019,02,05,14,51,1.50
2019,02,05,14,52,1.50
2019,02,05,14,53,1.50
2019,02,05,14,54,1.50
2019,02,05,14,55,1.50
2019,02,05,14,56,1.50
2019,02,05,14,57,1.50
2019,02,05,14,58,1.50
2019,02,05,14,59,1.50
2019,02,05,15,00,1.50
2019,02,05,15,01,1.50
2019,02,05,15,02,1.50
2019,02,05,15,03,1.50
2019,02,05,15,04,1.50
2019,02,05,15,05,1.50
2019,02,05,15,06,1.50
2019,02,05,15,07,1.50
2019,02,05,15,08,1.50
2019,02,05,15,09,1.50
2019,02,05,15,10,1.50
2019,02,05,15,11,1.50
2019,02,05,15,12,1.50
2019,02,05,15,13,1.50
2019,02,05,15,14,1.50
2019,02,05,15,15,1.50
2019,02,05,15,16,1.50
2019,02,05,15,17,1.50
2019,02,05,15,18,1.50
2019,02,05,15,19,1.50
2019,02,05,15,20,1.50
2019,02,05,15,21,1.50
2019,02,05,15,22,1.50
2019,02,05,15,23,1.50
2019,02,05,15,24,1.50
2019,02,05,15,25,1.50
2019,02,05,15,26,1.50
2019,02,05,15,27,1.50
2019,02,05,15,28,1.50
2019,02,05,15,29,1.50
2019,02,05,15,30,1.50
2019,02,05,15,31,1.50
2019,02,05,15,32,1.60
2019,02,05,15,33,1.60
2019,02,05,15,34,1.60
2019,02,05,15,35,1.60
2019,02,05,15,36,1.60
2019,02,05,15,37,1.60
2019,02,05,15,38,1.60
2019,02,05,15,39,1.60
2019,02,05,15,40,1.60
2019,02,05,15,41,1.60
2019,02,05,15,42,1.60
2019,02,05,15,43,1.60
2019,02,05,15,44,1.60
2019,02,05,15,45,1.60
2019,02,05,15,46,1.60
2019,02,05,15,47,1.60
2019,02,05,15,48,1.60
2019,02,05,15,49,1.60
2019,02,05,15,50,1.60
2019,02,05,15,51,1.60
2019,02,05,15,52,1.60
2019,02,05,15,53,1.60
2019,02,05,15,54,1.60
2019,02,05,15,55,1.60
2019,02,05,15,56,1.60
2019,02,05,15,57,1.60
2019,02,05,15,58,1.60
2019,02,05,15,59,1.60
2019,02,05,16,00,1.60
2019,02,05,16,01,1.60
2019,02,05,16,02,1.60
2019,02,05,16,03,1.60
2019,02,05,16,04,1.60
2019,02,05,16,05,1.60
2019,02,05,16,06,1.60
2019,02,05,16,07,1.60
2019,02,05,16,08,1.60
2019,02,05,16,09,1.60
2019,02,05,16,10,1.50
2019,02,05,16,11,1.50
2019,02,05,16,12,1.50
2019,02,05,16,13,1.50
2019,02,05,16,14,1.50
2019,02,05,16,15,1.50
2019,02,05,16,16,1.50
2019,02,05,16,17,1.50
2019,02,05,16,18,1.50
2019,02,05,16,19,1.50
2019,02,05,16,20,1.50
2019,02,05,16,21,1.40
2019,02,05,16,22,1.40
2019,02,05,16,23,1.40
2019,02,05,16,24,1.40
2019,02,05,16,25,1.40
2019,02,05,16,26,1.40
2019,02,05,16,27,1.40
2019,02,05,16,28,1.40
2019,02,05,16,29,1.30
2019,02,05,16,30,1.30
2019,02,05,16,31,1.30
2019,02,05,16,32,1.30
2019,02,05,16,33,1.30
2019,02,05,16,34,1.30
2019,02,05,16,35,1.30
2019,02,05,16,36,1.30
2019,02,05,16,37,1.30
2019,02,05,16,38,1.30
2019,02,05,16,39,1.30
2019,02,05,16,40,1.20
2019,02,05,16,41,1.20
2019,02,05,16,42,1.20
2019,02,05,16,43,1.20
2019,02,05,16,44,1.20
2019,02,05,16,45,1.20
2019,02,05,16,46,1.10
2019,02,05,16,47,1.10
2019,02,05,16,48,1.10
2019,02,05,16,49,1.00
2019,02,05,16,50,1.00
2019,02,05,16,51,1.00
2019,02,05,16,52,1.00
2019,02,05,16,53,0.90
2019,02,05,16,54,0.90
2019,02,05,16,55,0.90
2019,02,05,16,56,0.80
2019,02,05,16,58,0.80
2019,02,05,16,59,0.80
2019,02,05,17,00,0.80
2019,02,05,17,02,0.60
2019,02,05,17,03,0.60
2019,02,05,17,04,0.60
2019,02,05,17,06,0.50
2019,02,05,17,07,0.40
2019,02,05,17,08,0.40
2019,02,05,17,09,0.40
2019,02,05,17,11,0.40
2019,02,05,17,12,0.30
2019,02,05,17,13,0.30
2019,02,05,17,14,0.20
2019,02,05,17,16,0.10
2019,02,05,17,17,0.10
2019,02,05,17,18,0.10
2019,02,05,17,19,0.10
2019,02,05,17,21,-0.10
2019,02,05,17,22,-0.10
2019,02,05,17,23,-0.10
2019,02,05,17,24,-0.10
2019,02,05,17,26,-0.20
2019,02,05,17,27,-0.20
2019,02,05,17,28,-0.30
2019,02,05,17,29,-0.30
2019,02,05,17,31,-0.40
2019,02,05,17,32,-0.40
2019,02,05,17,33,-0.40
2019,02,05,17,34,-0.40
2019,02,05,17,36,-0.40
2019,02,05,17,37,-0.60
2019,02,05,17,38,-0.60
2019,02,05,17,39,-0.60
2019,02,05,17,41,-0.60
2019,02,05,17,42,-0.60
2019,02,05,17,43,-0.60
2019,02,05,17,44,-0.60
2019,02,05,17,46,-0.60
2019,02,05,17,47,-0.60
2019,02,05,17,48,-0.60
2019,02,05,17,49,-0.60
2019,02,05,17,51,-0.60
2019,02,05,17,52,-0.60
2019,02,05,17,53,-0.60
2019,02,05,17,54,-0.60
2019,02,05,17,56,-0.60
2019,02,05,17,57,-0.60
2019,02,05,17,58,-0.60
2019,02,05,17,59,-0.40
2019,02,05,18,01,-0.40
2019,02,05,18,02,-0.40
2019,02,05,18,03,-0.40
2019,02,05,18,04,-0.40
2019,02,05,18,06,-0.40
2019,02,05,18,07,-0.40
2019,02,05,18,08,-0.40
2019,02,05,18,09,-0.40
2019,02,05,18,11,-0.40
2019,02,05,18,12,-0.40
2019,02,05,18,13,-0.40
2019,02,05,18,14,-0.40
2019,02,05,18,16,-0.40
2019,02,05,18,17,-0.40
2019,02,05,18,18,-0.40
2019,02,05,18,19,-0.40
2019,02,05,18,21,-0.40
2019,02,05,18,22,-0.40
2019,02,05,18,23,-0.40
2019,02,05,18,24,-0.40
2019,02,05,18,26,-0.40
2019,02,05,18,27,-0.40
2019,02,05,18,28,-0.40
2019,02,05,18,29,-0.60
2019,02,05,18,30,-0.60
2019,02,05,18,32,-0.60
2019,02,05,18,33,-0.60
2019,02,05,18,34,-0.70
2019,02,05,18,35,-0.70
2019,02,05,18,36,-0.70
2019,02,05,18,37,-0.70
2019,02,05,18,38,-0.80
2019,02,05,18,39,-0.80
2019,02,05,18,40,-0.80
2019,02,05,18,41,-0.80
2019,02,05,18,42,-0.90
2019,02,05,18,43,-0.90
2019,02,05,18,44,-0.90
2019,02,05,18,45,-0.90
2019,02,05,18,46,-0.90
2019,02,05,18,47,-0.90
2019,02,05,18,48,-0.90
2019,02,05,18,49,-0.90
2019,02,05,18,50,-0.90
2019,02,05,18,51,-0.90
2019,02,05,18,52,-0.90
2019,02,05,18,53,-0.90
2019,02,05,18,54,-0.90
2019,02,05,18,55,-0.90